Location: Unspecified
(0.0000°N, 0.0000°E)
Time: 21:42:33
(UTC+00:00)

STARLINK-1371 - Visible Passes

Search period start: 12 January 2025 00:00
Search period end: 22 January 2025 00:00
Orbit: 546 x 548 km, 53.1° (Epoch: 12 January)

Date Brightness Start Highest point End Pass type
(mag) Time Alt. Az. Time Alt. Az. Time Alt. Az.
12 Jan 6.5 04:52:45 10° S 04:55:46 20° SE 04:58:47 10° ENE visible
12 Jan 6.8 18:29:10 10° W 18:31:52 17° SW 18:34:33 10° SSW visible
13 Jan 5.6 04:45:49 10° S 04:49:27 30° SE 04:53:04 10° ENE visible
14 Jan 4.6 04:39:10 10° SSW 04:43:08 47° SE 04:47:07 10° NE visible
15 Jan 3.6 04:33:44 17° SSW 04:36:53 78° ESE 04:40:59 10° NE visible
16 Jan 5.0 04:32:46 27° NNE 04:32:46 27° NNE 04:34:42 10° NNE visible
